timestamp,wind_dir_avg,wind_spd_avg,wind_spd_max_dir,wind_spd_gust,battery_voltage,lat,long
2020-01-12 00:04:01+00:00,212.0,10.07,208.0,12.01,12.65,47.59359,-54.27349
2020-01-12 00:14:01+00:00,217.0,9.88,221.0,11.18,12.57,47.59359,-54.27349
2020-01-12 00:24:01+00:00,213.0,10.37,207.0,12.34,12.57,47.59359,-54.27349
2020-01-12 00:34:01+00:00,227.0,11.68,230.0,13.49,12.57,47.59359,-54.27349
2020-01-12 00:44:01+00:00,232.0,11.52,240.0,13.57,12.57,47.59359,-54.27349
2020-01-12 00:54:01+00:00,232.0,8.98,232.0,10.13,12.57,47.59359,-54.27349
2020-01-12 01:04:01+00:00,232.0,8.43,235.0,9.72,12.57,47.59359,-54.27349
2020-01-12 01:14:01+00:00,239.0,8.14,237.0,9.27,12.57,47.59359,-54.27349
2020-01-12 01:24:01+00:00,239.0,9.4,235.0,10.89,12.57,47.59359,-54.27349
2020-01-12 01:34:01+00:00,241.0,9.37,244.0,11.33,12.57,47.59359,-54.27349
2020-01-12 01:44:01+00:00,245.0,8.34,247.0,9.8,12.57,47.59359,-54.27349
2020-01-12 01:54:01+00:00,253.0,10.81,251.0,12.16,12.57,47.59359,-54.27349
2020-01-12 02:04:01+00:00,262.0,12.78,265.0,16.54,12.57,47.59359,-54.27349
2020-01-12 02:14:01+00:00,264.0,14.79,265.0,17.14,12.57,47.59359,-54.27349
2020-01-12 02:24:01+00:00,263.0,15.39,260.0,18.15,12.57,47.59359,-54.27349
2020-01-12 02:34:01+00:00,265.0,14.79,266.0,18.14,12.57,47.59359,-54.27349
2020-01-12 02:44:01+00:00,265.0,15.87,264.0,18.99,12.57,47.59359,-54.27349
2020-01-12 02:54:01+00:00,269.0,14.87,262.0,17.87,12.57,47.59359,-54.27349
2020-01-12 03:04:01+00:00,268.0,15.28,268.0,17.71,12.57,47.59359,-54.27349
2020-01-12 03:14:01+00:00,270.0,15.87,272.0,18.78,12.57,47.59359,-54.27349
2020-01-12 03:24:01+00:00,273.0,17.19,277.0,20.77,12.57,47.59359,-54.27349
2020-01-12 03:34:01+00:00,275.0,14.82,280.0,18.27,12.57,47.59359,-54.27349
2020-01-12 03:44:01+00:00,279.0,16.61,276.0,20.78,12.57,47.59359,-54.27349
2020-01-12 03:54:01+00:00,280.0,14.43,284.0,18.38,12.57,47.59359,-54.27349
2020-01-12 04:04:01+00:00,269.0,16.32,281.0,24.17,12.57,47.59359,-54.27349
2020-01-12 04:14:01+00:00,266.0,15.42,258.0,22.13,12.57,47.59359,-54.27349
2020-01-12 04:24:01+00:00,276.0,14.52,280.0,16.66,12.57,47.59359,-54.27349
2020-01-12 04:34:01+00:00,279.0,15.1,284.0,17.86,12.57,47.59359,-54.27349
2020-01-12 04:44:01+00:00,279.0,13.72,277.0,15.97,12.57,47.59359,-54.27349
2020-01-12 04:54:01+00:00,280.0,13.61,284.0,15.75,12.57,47.59359,-54.27349
2020-01-12 05:04:01+00:00,286.0,14.22,284.0,16.88,12.57,47.59359,-54.27349
2020-01-12 05:14:01+00:00,287.0,13.03,301.0,16.28,12.57,47.59359,-54.27349
2020-01-12 05:24:01+00:00,287.0,12.92,294.0,16.62,12.57,47.59359,-54.27349
2020-01-12 05:34:01+00:00,285.0,12.03,282.0,14.19,12.57,47.59359,-54.27349
2020-01-12 05:44:01+00:00,290.0,12.0,286.0,14.06,12.57,47.59359,-54.27349
2020-01-12 05:54:01+00:00,295.0,11.08,296.0,13.22,12.57,47.59359,-54.27349
2020-01-12 06:04:01+00:00,297.0,11.29,303.0,12.6,12.57,47.59359,-54.27349
2020-01-12 06:14:01+00:00,306.0,9.09,307.0,10.28,12.57,47.59359,-54.27349
2020-01-12 06:24:01+00:00,313.0,10.66,306.0,12.24,12.57,47.59359,-54.27349
2020-01-12 06:34:01+00:00,311.0,10.63,320.0,13.17,12.57,47.59359,-54.27349
2020-01-12 06:44:01+00:00,316.0,10.44,308.0,11.73,12.57,47.59359,-54.27349
2020-01-12 06:54:01+00:00,314.0,10.84,317.0,14.96,12.57,47.59359,-54.27349
2020-01-12 07:04:01+00:00,322.0,8.68,323.0,9.87,12.57,47.59359,-54.27349
2020-01-12 07:14:01+00:00,324.0,7.8,329.0,8.81,12.57,47.59359,-54.27349
2020-01-12 07:24:01+00:00,325.0,8.45,321.0,10.69,12.57,47.59359,-54.27349
2020-01-12 07:34:01+00:00,331.0,8.47,318.0,10.12,12.57,47.59359,-54.27349
2020-01-12 07:44:01+00:00,332.0,7.37,326.0,8.24,12.57,47.59359,-54.27349
2020-01-12 07:54:01+00:00,325.0,7.62,322.0,9.53,12.57,47.59359,-54.27349
2020-01-12 08:04:01+00:00,332.0,6.31,333.0,7.97,12.57,47.59359,-54.27349
2020-01-12 08:14:01+00:00,322.0,5.96,324.0,7.27,12.49,47.59359,-54.27349
2020-01-12 08:24:01+00:00,315.0,4.29,327.0,5.23,12.49,47.59359,-54.27349
2020-01-12 08:34:01+00:00,307.0,3.95,311.0,5.16,12.49,47.59359,-54.27349
2020-01-12 08:44:01+00:00,302.0,3.31,305.0,3.97,12.49,47.59359,-54.27349
2020-01-12 08:54:01+00:00,308.0,3.59,308.0,4.58,12.49,47.59359,-54.27349
2020-01-12 09:04:01+00:00,301.0,3.85,303.0,4.64,12.49,47.59359,-54.27349
2020-01-12 09:14:01+00:00,304.0,5.8,298.0,6.89,12.49,47.59359,-54.27349
2020-01-12 09:24:01+00:00,305.0,7.5,306.0,9.53,12.49,47.59359,-54.27349
2020-01-12 09:34:01+00:00,301.0,6.61,303.0,7.66,12.49,47.59359,-54.27349
2020-01-12 09:44:01+00:00,296.0,5.93,297.0,6.38,12.49,47.59359,-54.27349
2020-01-12 09:54:01+00:00,305.0,11.13,311.0,13.83,12.49,47.59359,-54.27349
2020-01-12 10:04:01+00:00,326.0,8.21,322.0,10.22,12.49,47.59359,-54.27349
2020-01-12 10:14:01+00:00,330.0,7.53,342.0,9.9,12.49,47.59359,-54.27349
2020-01-12 10:24:01+00:00,333.0,8.13,329.0,9.31,12.49,47.59359,-54.27349
2020-01-12 10:34:01+00:00,328.0,8.65,331.0,10.93,12.49,47.59359,-54.27349
2020-01-12 10:44:01+00:00,319.0,6.46,322.0,7.97,12.49,47.59359,-54.27349
2020-01-12 10:54:01+00:00,339.0,6.94,340.0,8.16,12.49,47.59359,-54.27349
2020-01-12 11:04:01+00:00,348.0,8.76,342.0,10.12,12.49,47.59359,-54.27349
2020-01-12 11:14:01+00:00,345.0,12.39,349.0,14.08,12.49,47.59359,-54.27349
2020-01-12 11:24:01+00:00,339.0,11.9,337.0,13.39,12.49,47.59359,-54.27349
2020-01-12 11:34:01+00:00,354.0,9.63,357.0,11.5,12.49,47.59359,-54.27349
2020-01-12 11:44:01+00:00,354.0,10.85,350.0,12.74,12.49,47.59359,-54.27349
2020-01-12 11:54:01+00:00,354.0,10.27,352.0,11.29,12.49,47.59359,-54.27349
2020-01-12 12:04:01+00:00,348.0,11.14,345.0,12.28,12.49,47.59359,-54.27349
2020-01-12 12:14:01+00:00,356.0,9.35,352.0,10.7,12.57,47.59359,-54.27349
2020-01-12 12:24:01+00:00,355.0,9.29,350.0,10.66,12.57,47.59359,-54.27349
2020-01-12 12:34:01+00:00,1.0,10.45,358.0,11.91,12.57,47.59359,-54.27349
2020-01-12 12:44:01+00:00,351.0,9.32,346.0,10.82,12.57,47.59359,-54.27349
2020-01-12 12:54:01+00:00,359.0,9.88,4.0,11.18,12.57,47.59359,-54.27349
2020-01-12 13:04:01+00:00,10.0,10.04,11.0,11.27,12.57,47.59359,-54.27349
2020-01-12 13:14:01+00:00,7.0,10.34,359.0,11.85,12.73,47.59359,-54.27349
2020-01-12 13:24:01+00:00,356.0,11.42,348.0,13.93,12.73,47.59359,-54.27349
2020-01-12 13:34:01+00:00,353.0,10.79,346.0,12.77,12.73,47.59359,-54.27349
2020-01-12 13:44:01+00:00,355.0,9.61,350.0,11.38,12.73,47.59359,-54.27349
2020-01-12 13:54:01+00:00,10.0,10.24,9.0,11.29,12.73,47.59359,-54.27349
2020-01-12 14:04:01+00:00,6.0,9.74,2.0,11.1,12.73,47.59359,-54.27349
2020-01-12 14:14:01+00:00,21.0,9.62,20.0,10.76,12.73,47.59359,-54.27349
2020-01-12 14:24:01+00:00,4.0,10.18,6.0,11.62,12.73,47.59359,-54.27349
2020-01-12 14:34:01+00:00,16.0,9.2,15.0,10.62,12.73,47.59359,-54.27349
2020-01-12 14:44:01+00:00,8.0,8.77,9.0,9.78,12.73,47.59359,-54.27349
2020-01-12 14:54:01+00:00,14.0,9.79,12.0,11.33,12.73,47.59359,-54.27349
2020-01-12 15:04:01+00:00,14.0,10.72,22.0,12.11,12.73,47.59359,-54.27349
2020-01-12 15:14:01+00:00,15.0,10.23,14.0,11.37,12.97,47.59359,-54.27349
2020-01-12 15:24:01+00:00,30.0,9.3,39.0,12.23,12.97,47.59359,-54.27349
2020-01-12 15:34:01+00:00,15.0,8.47,18.0,9.96,12.97,47.59359,-54.27349
2020-01-12 15:44:01+00:00,7.0,10.06,6.0,11.32,12.97,47.59359,-54.27349
2020-01-12 15:54:01+00:00,17.0,9.36,16.0,10.39,12.97,47.59359,-54.27349
2020-01-12 16:04:01+00:00,17.0,8.69,27.0,10.17,12.97,47.59359,-54.27349
2020-01-12 16:14:01+00:00,25.0,7.67,31.0,9.5,12.97,47.59359,-54.27349
2020-01-12 16:24:01+00:00,4.0,11.34,3.0,12.13,12.97,47.59359,-54.27349
2020-01-12 16:34:01+00:00,6.0,9.63,7.0,11.07,12.97,47.59359,-54.27349
2020-01-12 16:44:01+00:00,13.0,8.57,11.0,9.99,12.97,47.59359,-54.27349
2020-01-12 16:54:01+00:00,18.0,7.76,19.0,8.96,12.97,47.59359,-54.27349
2020-01-12 17:04:01+00:00,17.0,7.35,18.0,8.2,12.97,47.59359,-54.27349
2020-01-12 17:14:01+00:00,22.0,7.06,25.0,8.77,12.97,47.59359,-54.27349
2020-01-12 17:24:01+00:00,18.0,7.3,27.0,8.4,12.97,47.59359,-54.27349
2020-01-12 17:34:01+00:00,19.0,6.1,16.0,7.27,12.97,47.59359,-54.27349
2020-01-12 17:44:01+00:00,27.0,6.18,29.0,7.07,12.97,47.59359,-54.27349
2020-01-12 17:54:01+00:00,31.0,6.88,35.0,8.39,12.97,47.59359,-54.27349
2020-01-12 18:04:01+00:00,22.0,6.98,33.0,8.24,12.97,47.59359,-54.27349
2020-01-12 18:14:01+00:00,36.0,5.57,36.0,6.79,12.73,47.59359,-54.27349
2020-01-12 18:24:01+00:00,17.0,5.51,16.0,6.71,12.73,47.59359,-54.27349
2020-01-12 18:34:01+00:00,34.0,4.51,39.0,5.68,12.73,47.59359,-54.27349
2020-01-12 18:44:01+00:00,30.0,4.87,30.0,5.49,12.73,47.59359,-54.27349
2020-01-12 18:54:01+00:00,44.0,4.23,48.0,4.85,12.73,47.59359,-54.27349
2020-01-12 19:04:01+00:00,39.0,4.31,36.0,5.36,12.73,47.59359,-54.27349
2020-01-12 19:14:01+00:00,36.0,5.65,38.0,6.72,12.57,47.59359,-54.27349
2020-01-12 19:24:01+00:00,64.0,6.25,76.0,7.59,12.57,47.59359,-54.27349
2020-01-12 19:34:01+00:00,37.0,5.14,37.0,6.2,12.57,47.59359,-54.27349
2020-01-12 19:44:01+00:00,53.0,4.32,52.0,5.14,12.57,47.59359,-54.27349
2020-01-12 19:54:01+00:00,59.0,6.18,57.0,6.76,12.57,47.59359,-54.27349
2020-01-12 20:04:01+00:00,37.0,5.46,44.0,6.34,12.57,47.59359,-54.27349
2020-01-12 20:14:01+00:00,40.0,5.64,44.0,6.62,12.49,47.59359,-54.27349
2020-01-12 20:24:01+00:00,42.0,6.3,40.0,7.17,12.49,47.59359,-54.27349
2020-01-12 20:34:01+00:00,44.0,7.46,43.0,8.16,12.49,47.59359,-54.27349
2020-01-12 20:44:01+00:00,39.0,8.28,37.0,9.56,12.49,47.59359,-54.27349
2020-01-12 20:54:01+00:00,40.0,6.97,37.0,8.2,12.49,47.59359,-54.27349
2020-01-12 21:04:01+00:00,51.0,7.84,41.0,9.37,12.49,47.59359,-54.27349
2020-01-12 21:14:01+00:00,55.0,8.62,61.0,10.05,12.41,47.59359,-54.27349
2020-01-12 21:24:01+00:00,69.0,9.66,72.0,10.4,12.41,47.59359,-54.27349
2020-01-12 21:34:01+00:00,65.0,8.36,69.0,10.05,12.41,47.59359,-54.27349
2020-01-12 21:44:01+00:00,63.0,8.57,64.0,9.55,12.41,47.59359,-54.27349
2020-01-12 21:54:01+00:00,61.0,6.99,60.0,8.96,12.41,47.59359,-54.27349
2020-01-12 22:04:01+00:00,59.0,8.63,55.0,9.75,12.41,47.59359,-54.27349
2020-01-12 22:14:01+00:00,59.0,8.56,61.0,9.76,12.41,47.59359,-54.27349
2020-01-12 22:24:01+00:00,58.0,7.64,44.0,8.9,12.41,47.59359,-54.27349
2020-01-12 22:34:01+00:00,64.0,9.71,58.0,11.25,12.41,47.59359,-54.27349
2020-01-12 22:44:01+00:00,67.0,9.21,64.0,10.05,12.41,47.59359,-54.27349
2020-01-12 22:54:01+00:00,74.0,7.94,73.0,10.0,12.41,47.59359,-54.27349
2020-01-12 23:04:01+00:00,65.0,9.29,68.0,11.27,12.41,47.59359,-54.27349
2020-01-12 23:14:01+00:00,72.0,9.59,69.0,11.15,12.41,47.59359,-54.27349
2020-01-12 23:24:01+00:00,69.0,9.3,69.0,10.07,12.41,47.59359,-54.27349
2020-01-12 23:34:01+00:00,63.0,9.83,60.0,11.06,12.41,47.59359,-54.27349
2020-01-12 23:44:01+00:00,67.0,10.24,72.0,12.21,12.41,47.59359,-54.27349
2020-01-12 23:54:01+00:00,62.0,8.87,60.0,10.36,12.41,47.59359,-54.27349
